Theta_e
323 324 323 325 323 323 322 322 322 322 322 322 322 322 322 322 325 325 325 325 325 325 324 322 322 320 319 319 317 316 315 314 315 315 315 314 313 313 314 313 312 312 311
321 321 321 321 321 321 320 320 321 321 321 321 321 321 321 321 324 323 323 325 325 325 324 324 323 320 316 319 317 316 317 316 314 313 313 313 313 313 313 312 311 312 312
319 319 319 319 320 319 319 322 322 322 321 321 321 321 320 320 321 323 323 324 323 324 323 323 322 320 316 318 318 318 316 316 315 314 314 313 313 314 315 314 312 311 310
318 319 320 319 320 320 321 321 322 322 321 321 321 322 321 321 322 322 323 324 324 322 320 319 318 318 318 318 317 317 315 316 316 316 316 315 314 313 312 311 310 309 308
318 318 319 320 320 320 320 321 321 321 321 321 322 322 321 321 322 323 322 321 319 319 318 319 318 318 318 317 317 316 315 316 315 314 313 312 311 310 309 308 307 304 304
317 318 319 319 320 320 320 320 321 321 320 321 321 321 321 320 320 320 320 319 319 318 317 317 317 317 317 316 315 315 314 313 311 309 307 305 304 303 303 301 301 301 301
317 318 318 319 320 320 319 320 320 321 321 321 320 320 320 319 319 319 319 319 318 317 317 316 316 315 315 314 312 311 308 307 305 304 303 302 301 301 300 299 299 299 299
316 318 319 317 318 318 319 319 320 320 320 320 320 320 319 319 319 319 319 318 316 315 315 314 314 311 309 306 305 304 302 300 298 297 296 295 294 294 294 294 295 295 295
317 319 318 317 317 317 317 318 318 319 318 318 317 317 317 317 317 317 316 315 314 312 310 310 309 305 300 297 296 295 295 294 294 294 294 294 293 293 292 294 294 295 295
318 317 317 316 316 316 317 317 317 317 316 316 315 316 315 315 314 315 314 314 313 311 308 301 297 296 295 295 296 298 298 297 297 296 295 294 294 294 293 292 292 293 292
317 317 316 315 315 315 315 316 315 315 314 313 313 313 313 313 312 312 310 310 306 299 296 295 295 295 295 294 295 298 297 296 295 295 295 294 294 293 293 292 291 291 291
317 316 315 314 313 313 313 313 313 312 312 309 310 310 310 309 308 306 302 298 297 297 296 298 299 298 298 297 296 293 294 295 295 295 295 294 293 293 292 291 291 291 291
317 316 315 313 311 311 310 311 311 311 309 307 307 305 302 300 298 296 295 296 296 299 301 300 300 300 298 295 293 291 293 294 294 294 294 293 292 291 291 291 291 290 290
317 316 314 313 310 310 309 309 309 308 307 305 301 299 297 296 295 295 295 295 299 300 299 300 299 297 294 292 291 291 290 290 292 292 292 291 290 290 290 290 289 289 289
317 316 313 313 310 309 309 308 307 306 304 300 298 297 296 295 295 295 295 298 300 299 299 299 299 296 293 292 290 290 290 291 291 291 291 290 289 289 289 289 288 289 289
317 315 314 313 309 308 307 307 305 302 299 298 297 297 296 296 295 295 299 300 300 297 298 299 298 295 293 292 291 290 290 290 290 289 289 289 289 289 288 289 288 288 288
316 316 313 313 308 307 306 305 302 299 297 296 296 296 296 295 295 296 300 301 299 297 296 298 297 295 292 291 290 289 289 288 288 290 290 289 289 289 288 287 287 287 287
316 316 313 313 308 306 306 304 300 298 296 295 295 295 294 294 294 296 300 302 300 297 295 298 297 295 292 290 289 288 288 288 290 290 290 289 289 288 288 287 287 286 286
315 316 314 314 309 306 305 302 299 297 296 295 295 294 294 294 294 295 299 301 301 299 296 298 297 295 292 289 288 288 288 289 289 289 289 288 288 287 287 287 286 286 286
315 316 313 314 310 306 304 301 298 297 296 295 295 295 294 294 294 294 295 298 301 299 297 298 297 295 291 289 288 288 289 289 289 289 288 287 287 285 286 286 285 285 284
315 315 314 314 313 306 304 300 298 298 297 296 295 296 296 295 295 295 295 296 300 300 298 297 297 294 290 288 288 288 289 289 289 288 287 287 286 285 285 285 284 284 284
315 315 314 314 313 307 304 300 298 298 298 297 296 296 296 295 296 295 296 297 297 301 299 296 296 293 289 288 289 289 289 289 288 288 287 286 286 285 285 285 285 284 284
316 315 314 314 314 309 304 301 299 298 298 297 297 297 296 296 297 296 296 297 296 300 300 297 295 291 289 289 289 289 289 288 288 287 287 286 286 285 285 285 284 284 283
315 315 314 314 313 311 306 302 299 298 298 298 298 297 297 297 297 297 297 297 296 297 300 297 294 290 289 289 289 289 288 288 287 287 286 286 285 285 285 284 284 283 283
314 315 314 314 313 311 307 303 301 299 298 298 298 298 297 297 298 298 298 297 296 296 300 298 293 290 289 289 289 289 288 288 287 287 286 286 285 285 285 284 283 283 283
314 315 315 315 314 310 308 304 301 299 299 298 298 298 299 299 299 299 299 298 297 297 299 298 293 290 289 289 289 289 288 288 287 287 286 286 285 284 284 284 284 284 284
Wind_Speed
11 12 11 9 9 7 6 7 9 11 13 14 16 17 15 16 16 17 18 18 17 20 18 18 17 30 26 21 23 25 19 14 8 9 10 9 8 12 15 17 18 20 20
12 9 7 7 5 5 7 8 10 13 16 16 18 21 20 19 16 14 16 18 14 18 20 22 26 33 32 25 28 20 15 13 16 22 23 25 25 22 20 20 21 21 22
10 9 8 9 9 8 7 6 6 7 5 7 6 8 14 16 16 16 15 15 15 14 14 21 24 27 38 29 22 14 17 16 15 17 19 23 27 29 26 23 22 21 21
10 10 9 7 7 7 6 2 1 3 5 1 4 3 9 12 11 14 13 12 13 8 5 3 10 23 22 9 9 15 14 12 11 14 15 15 15 17 18 18 16 15 16
11 10 10 9 7 6 5 2 3 6 8 10 8 7 9 11 9 10 8 5 11 17 14 15 13 12 10 8 10 12 11 11 10 11 11 11 10 9 9 9 9 10 9
11 12 11 10 9 6 5 5 7 13 15 15 14 15 16 15 12 12 19 22 18 17 16 15 14 12 10 8 5 4 5 5 4 3 1 2 2 4 4 3 2 6 4
12 12 12 11 11 10 9 9 11 17 16 18 19 18 19 19 18 21 18 18 17 16 15 13 13 10 7 6 6 5 6 5 5 4 5 3 5 6 6 6 6 9 6
14 14 15 14 14 14 10 12 14 16 15 16 16 15 16 16 15 15 15 16 18 17 14 12 11 12 11 9 7 4 3 2 3 3 4 3 5 7 8 9 10 10 9
16 17 17 15 15 15 13 15 17 18 18 18 18 20 21 19 16 18 19 20 20 20 16 13 11 10 9 6 3 2 1 1 1 1 2 3 4 5 4 4 4 4 2
19 19 18 16 15 16 15 18 18 18 19 18 19 19 20 22 19 17 16 17 17 16 13 11 10 8 6 4 5 5 5 6 6 8 9 11 12 15 14 8 5 4 5
22 22 20 18 17 16 18 20 21 22 21 21 22 21 21 20 19 17 15 15 15 14 13 11 9 6 4 3 5 6 5 3 3 5 5 5 6 7 7 7 4 3 5
24 24 22 20 18 19 21 22 21 20 20 21 21 22 21 20 17 15 14 14 14 14 13 11 8 5 4 3 4 4 4 5 4 3 4 4 5 5 6 7 6 7 7
27 26 25 22 18 20 22 21 20 18 20 20 20 21 20 19 18 16 15 14 13 13 11 8 7 6 6 6 6 6 7 4 5 3 3 3 4 6 6 6 6 7 8
30 29 27 22 19 19 19 18 19 17 19 20 21 20 20 19 18 17 15 14 12 10 9 8 8 7 7 7 7 5 4 3 3 3 3 4 6 6 7 8 8 7 7
31 30 29 22 20 20 18 18 18 15 18 20 20 19 20 19 17 16 15 13 10 9 8 8 7 7 7 7 6 6 6 5 4 4 1 6 7 6 5 9 9 8 8
34 33 31 24 22 21 24 25 21 18 18 17 17 17 18 16 17 16 14 11 9 8 8 8 7 6 5 5 5 5 6 5 4 5 8 8 7 7 7 6 9 8 9
33 35 32 26 24 24 25 27 26 23 19 16 16 15 15 18 17 16 13 10 8 8 7 6 4 4 4 4 4 3 4 5 5 6 7 7 7 6 5 4 6 7 8
33 34 34 28 27 25 25 27 27 27 26 23 19 16 17 16 17 16 12 9 7 6 5 3 3 3 3 3 4 4 4 6 6 6 7 7 8 8 8 8 8 9 10
35 36 36 30 29 27 26 28 27 26 25 25 23 21 19 18 17 16 12 8 5 4 2 1 2 2 3 3 4 4 4 4 5 5 6 7 8 8 7 8 10 10 11
35 35 38 33 30 29 29 29 28 26 25 25 25 24 24 22 21 19 15 9 5 2 1 1 2 2 3 3 4 5 4 5 5 6 6 7 8 7 8 9 10 11 12
37 37 40 35 31 33 32 30 28 26 25 25 24 23 23 21 19 17 15 11 7 1 1 1 1 2 2 3 4 4 3 4 5 5 7 8 10 10 11 12 13 14 14
38 39 42 37 34 35 33 31 29 27 25 25 24 22 20 20 17 16 15 12 10 3 1 2 1 1 2 3 3 3 3 4 5 6 7 8 8 10 10 11 12 13 14
41 41 41 39 35 35 34 33 31 29 26 25 25 24 24 21 18 17 16 14 11 7 3 2 1 0 1 2 2 2 2 4 6 7 8 8 9 10 9 10 12 13 16
41 44 43 41 38 37 37 35 33 30 28 27 25 24 25 23 19 18 16 15 12 10 5 2 1 1 1 2 2 1 2 4 6 7 8 8 9 10 10 12 14 16 16
43 44 46 44 41 40 39 37 34 32 30 28 26 24 24 23 20 18 16 15 13 11 7 4 2 2 2 3 2 2 2 4 6 8 8 9 10 11 12 14 14 15 18
44 44 46 43 40 41 41 39 37 35 32 29 27 25 24 22 21 19 17 15 14 12 9 5 4 4 4 4 3 2 3 4 6 7 8 9 11 12 14 15 17 17 19
Wind_Direction
162 183 183 186 192 192 212 240 252 259 255 246 243 240 240 232 227 225 231 235 244 241 242 235 233 210 193 198 189 175 179 195 212 198 227 249 247 262 273 265 254 260 264
177 190 195 208 210 231 230 258 271 272 272 267 253 240 235 232 222 237 234 241 239 250 257 244 242 212 199 202 186 198 217 263 238 244 263 264 272 273 278 264 255 259 266
183 191 202 212 213 211 231 247 278 282 267 258 247 239 233 232 223 222 236 234 242 258 250 253 239 224 205 198 193 234 255 251 240 243 256 259 259 264 265 267 264 267 269
178 184 205 213 196 191 197 177 59 96 60 143 207 195 193 183 201 204 221 234 243 242 250 229 231 200 176 180 217 232 231 228 235 254 257 263 269 268 267 268 269 271 269
187 187 177 173 169 167 158 152 94 110 116 99 137 146 168 172 195 192 176 160 127 123 122 144 155 165 178 190 218 231 231 250 261 257 256 258 260 265 269 275 274 278 283
189 171 167 172 167 167 175 149 113 126 108 104 109 114 112 111 116 120 127 129 133 141 148 149 147 147 153 163 178 207 219 222 232 232 253 331 297 288 290 304 290 271 283
182 168 171 161 154 145 148 130 115 130 120 113 105 104 109 105 109 128 132 140 144 149 148 142 134 128 139 152 139 137 138 147 156 151 181 172 236 267 272 279 288 261 240
177 173 170 158 155 141 146 140 127 133 135 130 127 126 124 123 134 134 140 134 130 122 117 117 126 128 123 117 117 115 127 165 192 221 237 255 285 300 292 275 265 265 282
178 169 161 157 153 138 153 147 133 132 127 122 121 122 118 115 123 130 134 132 128 123 122 125 125 117 111 105 101 89 106 115 211 345 356 340 329 354 10 60 10 22 327
180 169 162 155 147 144 150 148 143 140 134 133 122 116 113 114 117 120 127 131 133 128 124 116 111 112 114 109 95 92 82 76 48 31 29 27 16 6 12 34 31 14 338
181 170 161 154 148 149 148 145 144 138 131 126 123 129 129 128 130 131 129 127 125 124 125 124 114 103 110 148 152 152 151 171 134 63 39 31 25 12 352 355 345 345 330
181 172 162 157 153 153 150 146 143 134 133 132 131 131 132 133 133 137 140 137 132 126 121 117 112 102 76 71 86 113 134 109 109 63 36 8 8 0 347 332 345 339 325
179 173 166 160 152 162 158 152 149 148 143 136 137 138 139 141 140 138 136 132 130 124 110 97 83 66 62 72 71 80 78 73 65 60 36 1 317 305 327 339 326 320 324
181 175 169 161 160 157 153 154 152 151 154 150 148 147 146 145 144 142 140 134 126 116 103 91 73 68 80 78 74 70 65 65 86 81 39 344 325 343 339 339 327 319 338
184 177 171 168 165 158 153 156 156 158 165 160 157 154 154 152 151 146 143 136 118 100 102 88 75 83 85 76 65 57 52 55 48 36 319 308 337 345 352 341 349 349 333
185 179 176 171 170 163 169 163 167 165 163 164 159 158 155 152 148 148 137 125 117 115 102 76 73 88 92 82 58 43 42 38 24 355 7 9 17 2 349 339 326 324 331
192 186 177 182 173 177 176 172 165 160 160 161 163 160 153 151 153 149 140 132 126 112 107 85 77 102 106 80 60 45 25 11 17 15 5 11 6 1 358 335 335 344 343
195 194 183 187 187 184 177 175 175 169 165 162 163 162 158 159 159 157 142 127 115 110 117 87 75 101 101 66 47 41 29 20 16 14 17 10 5 358 356 355 349 340 331
196 194 188 196 194 183 181 180 179 175 172 169 166 165 167 167 167 164 157 132 120 113 125 100 72 99 79 48 38 40 34 20 3 5 4 357 353 359 354 342 335 334 334
198 198 190 199 195 185 188 183 182 181 179 178 176 175 173 177 176 176 175 165 149 134 159 133 49 77 56 37 37 35 31 27 358 354 352 351 351 351 337 337 339 340 339
198 197 196 202 202 194 191 188 185 185 184 182 184 185 186 183 182 183 185 187 185 167 255 211 4 58 46 42 41 35 27 355 350 352 355 357 5 357 348 358 356 344 341
199 199 198 204 204 199 194 192 190 189 187 185 186 189 187 186 189 191 194 198 200 197 262 200 327 78 51 52 46 37 19 1 5 360 5 14 3 355 3 352 338 330 335
200 200 201 203 208 203 197 195 194 193 190 189 191 189 184 186 193 197 200 206 205 208 240 197 278 97 66 68 60 43 13 1 5 5 9 5 358 353 356 344 334 340 347
203 200 203 204 206 205 201 198 198 197 194 194 195 193 191 193 196 201 203 209 205 211 225 215 232 189 130 109 104 87 31 13 5 1 360 357 354 352 355 345 348 348 348
202 202 204 207 205 205 203 202 201 200 198 198 199 197 197 200 202 203 206 208 208 212 218 221 223 204 166 143 143 103 44 15 6 2 1 2 1 359 353 346 0 353 357
202 203 206 207 205 204 205 203 203 203 201 200 202 201 201 202 206 206 208 208 209 211 213 219 215 204 176 163 148 99 37 10 7 9 2 9 4 360 360 6 4 350 353